User: anonymous   Login
Location: Unspecified
(0.0000°N, 0.0000°E)
Time: 21:29:54
(UTC+00:00)
Language:

TBA - TO BE ASSIGNED - Orbit

View from above orbital plane
View from above orbital plane
View from above satellite
View from above satellite

Ground track
Ground track

The orbit is defined by the following mean orbital elements,

1 69018U          26145.64830588 +.00000000 +00000-0 +11439-3 0 00008
2 69018  97.4071  43.8755 0006379  97.7966 262.3993 15.20167748    00
Epoch (UTC): 25 May 2026 15:33:33
Eccentricity: 0.0006379
inclination: 97.4071°
perigee height: 501 km
apogee height: 510 km
right ascension of ascending node: 43.8755°
argument of perigee: 97.7966°
revolutions per day: 15.20167748
mean anomaly at epoch: 262.3993°

The dashed part of the orbit path shows where the satellite is in the earth's shadow,  

DLR